When you browse on this site, cookies collect data to enhance your experience and personalize the content and advertising you see.
Visit our Privacy Policy to learn more. By continuing to use the site, you agree to this use of cookies and data.
  • In Austria
  • List of Countries
  • For 7 days
  • Water Temperature
  • Weather Map
  • News
  • Weather Widgets
  • user-avatar
    Login

    Hourly Weather Hlybochok

    Today, 23 September, Monday

    Time Temperature Precipitation Wind Pressure Humidity
    00:00 +15°C° 0 mm 2 mps 726 mmHg 65%
    01:00 +13°C° 0 mm 2 mps 726 mmHg 71%
    02:00 +10°C° 0 mm 1 mps 725 mmHg 70%
    03:00 +9°C° 0 mm 2 mps 725 mmHg 76%
    04:00 +9°C° 0 mm 2 mps 725 mmHg 75%
    05:00 +10°C° 0 mm 1 mps 725 mmHg 69%
    06:00 +11°C° 0 mm 1 mps 725 mmHg 66%
    07:00 +11°C° 0 mm 1 mps 725 mmHg 65%
    08:00 +12°C° 0 mm 1 mps 725 mmHg 67%
    09:00 +14°C° 0 mm 1 mps 726 mmHg 64%
    10:00 +16°C° 0 mm 1 mps 726 mmHg 61%
    11:00 +18°C° 0 mm 1 mps 726 mmHg 62%
    12:00 +19°C° 0 mm 2 mps 726 mmHg 59%
    13:00 +19°C° 0 mm 2 mps 726 mmHg 56%
    14:00 +20°C° 0 mm 3 mps 726 mmHg 55%
    15:00 +20°C° 0 mm 3 mps 726 mmHg 55%
    16:00 +20°C° 0 mm 3 mps 726 mmHg 55%
    17:00 +19°C° 0 mm 3 mps 725 mmHg 58%
    18:00 +18°C° 0 mm 2 mps 725 mmHg 65%
    19:00 +18°C° 0 mm 1 mps 726 mmHg 75%
    20:00 +18°C° 0 mm 1 mps 726 mmHg 80%
    21:00 +16°C° 0 mm 1 mps 726 mmHg 84%
    22:00 +13°C° 0 mm 4 mps 726 mmHg 100%
    23:00 +13°C° 0 mm 4 mps 726 mmHg 100%

    Tomorrow, 24 September, Tuesday

    Time Temperature Precipitation Wind Pressure Humidity
    00:00 +12°C° 0 mm 4 mps 726 mmHg 100%
    01:00 +11°C° 0 mm 4 mps 726 mmHg 100%
    02:00 +11°C° 0 mm 4 mps 726 mmHg 99%
    03:00 +10°C° 0 mm 3 mps 726 mmHg 98%
    04:00 +10°C° 0 mm 3 mps 726 mmHg 97%
    05:00 +9°C° 0 mm 3 mps 726 mmHg 97%
    06:00 +9°C° 0 mm 3 mps 726 mmHg 97%
    07:00 +9°C° 0 mm 3 mps 726 mmHg 96%
    08:00 +9°C° 0 mm 3 mps 726 mmHg 95%
    09:00 +9°C° 0 mm 2 mps 726 mmHg 94%
    10:00 +9°C° 0 mm 2 mps 726 mmHg 92%
    11:00 +10°C° 0 mm 2 mps 727 mmHg 91%
    12:00 +10°C° 0 mm 2 mps 727 mmHg 90%
    13:00 +12°C° 0 mm 2 mps 726 mmHg 89%
    14:00 +12°C° 0 mm 2 mps 726 mmHg 88%
    15:00 +13°C° 0 mm 2 mps 726 mmHg 87%
    16:00 +13°C° 0 mm 2 mps 726 mmHg 89%
    17:00 +12°C° 0 mm 3 mps 726 mmHg 91%
    18:00 +11°C° 0 mm 3 mps 725 mmHg 92%
    19:00 +12°C° 0 mm 2 mps 726 mmHg 95%
    20:00 +12°C° 0 mm 2 mps 726 mmHg 96%
    21:00 +10°C° 0 mm 2 mps 726 mmHg 98%
    22:00 +10°C° 0 mm 2 mps 726 mmHg 100%
    23:00 +9°C° 0 mm 3 mps 726 mmHg 100%

    Day after tomorrow, 25 September, Wednesday

    Time Temperature Precipitation Wind Pressure Humidity
    00:00 +9°C° 0 mm 3 mps 726 mmHg 98%
    01:00 +10°C° 0 mm 2 mps 725 mmHg 98%
    02:00 +10°C° 0 mm 2 mps 725 mmHg 98%
    03:00 +10°C° 0 mm 2 mps 725 mmHg 99%
    04:00 +10°C° 0 mm 3 mps 725 mmHg 100%
    05:00 +10°C° 0 mm 3 mps 725 mmHg 100%
    06:00 +9°C° 0 mm 3 mps 725 mmHg 100%
    07:00 +8°C° 0 mm 4 mps 725 mmHg 100%
    08:00 +10°C° 0 mm 4 mps 725 mmHg 100%
    09:00 +12°C° 0 mm 4 mps 725 mmHg 98%
    10:00 +14°C° 0 mm 4 mps 725 mmHg 97%
    11:00 +17°C° 0 mm 4 mps 725 mmHg 94%
    12:00 +17°C° 0 mm 5 mps 725 mmHg 93%
    13:00 +19°C° 0 mm 5 mps 725 mmHg 91%
    14:00 +19°C° 0.2 mm 5 mps 725 mmHg 89%
    15:00 +19°C° 0.8 mm 5 mps 724 mmHg 88%
    16:00 +17°C° 1 mm 5 mps 724 mmHg 90%
    17:00 +17°C° 1.5 mm 6 mps 723 mmHg 90%
    18:00 +17°C° 1 mm 4 mps 723 mmHg 95%
    19:00 +17°C° 0.7 mm 2 mps 723 mmHg 97%
    20:00 +16°C° 0 mm 3 mps 723 mmHg 96%
    21:00 +15°C° 0 mm 4 mps 723 mmHg 96%
    22:00 +14°C° 1.1 mm 4 mps 723 mmHg 100%
    23:00 +14°C° 0 mm 4 mps 723 mmHg 100%

    26 September, Thursday

    Time Temperature Precipitation Wind Pressure Humidity
    00:00 +14°C° 0 mm 3 mps 723 mmHg 100%
    01:00 +14°C° 0 mm 3 mps 722 mmHg 99%
    02:00 +15°C° 0 mm 2 mps 722 mmHg 98%
    03:00 +15°C° 0 mm 1 mps 722 mmHg 98%
    04:00 +15°C° 0 mm 2 mps 722 mmHg 96%
    05:00 +15°C° 0 mm 1 mps 722 mmHg 95%
    06:00 +14°C° 0 mm 1 mps 722 mmHg 96%
    07:00 +15°C° 0 mm 1 mps 723 mmHg 92%
    08:00 +16°C° 0 mm 1 mps 723 mmHg 93%
    09:00 +16°C° 0 mm 2 mps 723 mmHg 96%
    10:00 +16°C° 2.3 mm 1 mps 723 mmHg 100%
    11:00 +16°C° 1.1 mm 1 mps 723 mmHg 99%
    12:00 +16°C° 0.1 mm 1 mps 723 mmHg 98%
    13:00 +16°C° 1.9 mm 2 mps 723 mmHg 100%
    14:00 +15°C° 7.8 mm 2 mps 723 mmHg 100%
    15:00 +15°C° 2.2 mm 2 mps 722 mmHg 100%
    16:00 +15°C° 0.1 mm 2 mps 722 mmHg 100%
    17:00 +15°C° 0 mm 2 mps 722 mmHg 99%
    18:00 +15°C° 0 mm 2 mps 721 mmHg 100%
    19:00 +13°C° 6.4 mm 5 mps 722 mmHg 100%
    20:00 +13°C° 3.7 mm 5 mps 722 mmHg 100%
    21:00 +12°C° 1.3 mm 4 mps 722 mmHg 100%
    22:00 +12°C° 0.7 mm 5 mps 722 mmHg 100%
    23:00 +11°C° 0.1 mm 6 mps 722 mmHg 100%

    27 September, Friday

    Time Temperature Precipitation Wind Pressure Humidity
    00:00 +12°C° 0 mm 5 mps 722 mmHg 100%
    01:00 +11°C° 0.5 mm 4 mps 721 mmHg 100%
    02:00 +12°C° 1 mm 4 mps 722 mmHg 100%

    28 September, Saturday

    Time Temperature Precipitation Wind Pressure Humidity
    Show more